Home > Weather > Bludenz > Past weeks

Flag for Austria Weather for the Past 2 Weeks in Bludenz, Vorarlberg, Austria

Now
46 °F

Cool.


Feels Like: 42 °F
Forecast: 47 / 60 °F
Wind: 7 mph from Northwest

Location: Vaduz

Current Time: May 2, 2016 at 10:57:07 AM

Latest Report: May 2, 2016 at 9:00 AM


Visibility: N/A

Pressure: 30.21 "Hg (28.21 "Hg at 563m altitude)

Humidity: 93%

Dew Point: 44 °F

Location of BludenzLocation

Historic Weather in Bludenz — Graph

°F

Bludenz Temperature Yesterday

Maximum temperature yesterday: 50 °F (at 12:00 AM)
Minimum temperature yesterday: 43 °F (at 10:00 PM)
Average temperature yesterday: 45 °F

High & Low Weather Summary for the Past Weeks

 TemperatureHumidityPressure
High67 °F (Apr 21, 6:00 PM)95% (Apr 19, 2:00 AM)30.40 "Hg (Apr 19, 2:00 AM)
Low33 °F (Apr 25, 3:00 AM)30% (Apr 28, 4:00 PM)29.64 "Hg (Apr 26, 3:00 PM)
Average48 °F69%30.00 "Hg
* Reported Apr 17 1:00 PM — May 2 9:00 AM, Bludenz, Weather by CustomWeather, © 2016

Note: Actual official high and low records may vary slightly from our data, if they occured in-between our weather recording intervals... More about our weather records

Advertising

Bludenz Weather History for the Previous 24 Hours

Scroll right to see more
 ConditionsComfort  
Time TempWeatherWind HumidityBarometerVisibility
9:00 AM
Mon, May 2
46 °FCool.7 mph93%30.21 "HgN/A
8:00 AM45 °FLight rain. Low clouds.6 mph92%30.21 "Hg2 mi
6:00 AM44 °FQuite cool.1 mph94%30.20 "HgN/A
3:00 AM44 °FQuite cool.2 mph94%30.20 "HgN/A
2:00 AM44 °FRain. Overcast.No wind95%30.20 "Hg4 mi
1:00 AM44 °FQuite cool.2 mph93%30.21 "HgN/A
12:00 AM43 °FQuite cool.No wind92%30.21 "HgN/A
10:00 PM
Sun, May 1
43 °FQuite cool.1 mph89%30.20 "HgN/A
9:00 PM44 °FQuite cool.3 mph94%30.19 "HgN/A
8:00 PM44 °FQuite cool.1 mph94%30.16 "HgN/A
7:00 PM45 °FQuite cool.2 mph92%30.15 "HgN/A
6:00 PM45 °FQuite cool.2 mph93%30.14 "HgN/A
5:00 PM45 °FRain. Overcast.2 mph90%30.12 "Hg6 mi
4:00 PM44 °FQuite cool.2 mph90%30.11 "HgN/A
3:00 PM45 °FCool.5 mph90%30.10 "HgN/A
2:00 PM46 °FOvercast.5 mph92%30.07 "Hg6 mi
1:00 PM46 °FCool.5 mph89%30.06 "HgN/A
12:00 PM46 °FCool.5 mph88%30.05 "HgN/A
11:00 AM44 °FRain. Low clouds.3 mph90%30.05 "Hg2 mi
10:00 AM44 °FQuite cool.5 mph90%30.03 "HgN/A
Weather by CustomWeather, © 2016

See weather overviewHow to use our weather pages